Location: Baix
(44.7118°N, 4.7648°E)
Time: 01:17:43
(UTC+00:00)

Vanguard 3 - Pass Details

Date: 02 December 2020
Orbit: 508 x 3262 km, 33.3° (Epoch: 19 January)

Event Time Altitude Azimuth Distance (km) Brightness Sun altitude
Rises 23:52:38 0° 248° (WSW) 2,816 - -67.0°
Reaches altitude 10° 23:56:31 10° 210° (SSW) 2,227 - -66.8°
Maximum altitude 23:57:53 11° 194° (SSW) 2,291 - -66.7°
Drops below altitude 10° 23:59:24 10° 178° (S) 2,520 - -66.7°
Sets 00:05:04 0° 146° (SE) 4,129 - -66.3°
